Regional Weather Roundup
Issued by NWS

Home | Current Version | Previous Version | Graphics & Text | Print | Product List | Glossary On
Versions: 1 2 3 4 5 6 7 8 9 10 11 12 13 14 15 16 17 18 19 20 21 22 23 24 25 26 27 28 29 30 31 32 33 34 35 36 37 38 39 40 41 42 43 44 45 46 47 48 49 50
000
ASUS43 KFSD 181110
RWRSD

WEATHER ROUNDUP FOR SOUTH DAKOTA
NATIONAL WEATHER SERVICE SIOUX FALLS SD
500 AM CST THU DEC 18 2014

NOTE: "FAIR" INDICATES FEW OR NO CLOUDS BELOW 12,000 FEET WITH NO
SIGNIFICANT WEATHER AND/OR OBSTRUCTIONS TO VISIBILITY.


SDZ001>005-009-010-012>017-181200-
NORTHWEST AND NORTH CENTRAL SOUTH DAKOTA

CITY           SKY/WX    TMP DP  RH WIND       PRES   REMARKS
BUFFALO          N/A     24  20  84 S10       29.89F WCI  14
FAITH            N/A     21  16  81 S10       30.02F WCI  10
MOBRIDGE       CLOUDY    19  17  92 SE9       30.08F FOG     WCI   8
$$

SDZ012>016-024>037-041>051-057-063-072>074-181200-
SOUTHWEST AND SOUTH CENTRAL SOUTH DAKOTA

CITY           SKY/WX    TMP DP  RH WIND       PRES   REMARKS
RAPID CTY ARPT CLOUDY    22  20  92 S6        29.99F WCI  14
PIERRE         CLOUDY    20  19  96 SE9       30.11S WCI   9
CUSTER         PTCLDY    25  17  72 CALM      29.91S
ELLSWORTH AFB  CLOUDY    22  20  94 S6        29.98F WCI  14
PHILIP         CLOUDY    23  19  85 CALM      30.06S
PINE RIDGE     CLOUDY    15  12  88 SW6       30.01S WCI   6
SPEARFISH        N/A     23  23 100 MISG      29.95F
WINNER         CLOUDY    24  20  84 SE9       30.10F WCI  14
$$

SDZ004>011-016>023-039-040-181200-
NORTHEAST SOUTH DAKOTA

CITY           SKY/WX    TMP DP  RH WIND       PRES   REMARKS
ABERDEEN       CLOUDY    17  12  80 S6        30.20F WCI   9
WATERTOWN      CLOUDY    14   9  80 SE6       30.17F WCI   5
SISSETON         N/A      6   3  87 SE5       30.23F WCI  -3
$$

SDZ017-020-022-023-036>040-048>070-181200-
SOUTHEAST SOUTH DAKOTA

CITY           SKY/WX    TMP DP  RH WIND       PRES   REMARKS
SIOUX FALLS    CLOUDY    18  14  84 E7        30.21F WCI   9
HURON          CLOUDY    18  14  84 SE6       30.20F WCI  10
CHAMBERLAIN    CLOUDY    19  17  91 SE7       30.14F WCI  10
MITCHELL       CLOUDY    21  17  84 SE5       30.21S WCI  15
YANKTON        CLOUDY    21  18  86 E5        30.22S WCI  15
$$

ABBREVIATIONS USED IN REMARKS
   TC - TEMPERATURE IN CELSIUS
  WCI - WIND CHILL INDEX
   HX - HEAT INDEX
  VSB - VISIBILITY




USA.gov is the U.S. government's official web portal to all federal, state and local government web resources and services.